#timestamp,LO_Frequency,Hit,StdDev 
1563577215.4,286046998.2,N
1563577235.3,286047000.8,N
1563577255.1,286047000.8,N
1563577275.8,286047001.1,N
1563577295.7,286046996.6,Y
1563577315.5,286047000.9,P
1563577335.4,286046998.4,P
1563577355.2,286046998.2,N
1563577375.0,286046998.8,N
1563577376.0,286046998.8,N
1563577395.8,286046998.4,N
1563577415.6,286046996.9,Y
1563577435.5,286046998.9,P
1563577455.3,286046996.8,P
1563577475.1,286046999.6,N
1563577495.9,286046999.5,N
1563577515.7,286046999.5,N
1563577535.6,286046998.9,N
1563577555.4,286046998.2,N
1563577575.2,286047000.3,N
1563577595.1,286047000.6,N
1563577596.0,286047000.6,N
1563577615.8,286046998.4,N
1563577635.7,286046998.9,N
1563577655.5,286046999.2,N
1563577675.3,286046999.2,N
1563577695.2,286046998.3,N
1563577715.0,286047001.1,N
1563577715.9,286047001.1,N
1563577735.8,286046998.8,N
1563577755.6,286046996.7,Y
1563577775.4,286046995.0,P
1563577795.3,286046995.6,N
1563577815.1,286046995.4,N
1563577835.8,286046995.5,N
1563577855.7,286046997.6,N
1563577875.5,286046998.5,N
1563577895.4,286046999.6,N
1563577915.2,286046997.2,N
1563577935.0,286046996.9,N
1563577935.9,286046996.9,N
1563577955.8,286046997.1,N
1563577975.6,286046999.4,N
1563577995.4,286046998.4,N
1563578015.3,286046998.9,N
1563578035.1,286046999.4,N
1563578055.9,286046999.0,N
1563578075.7,286046999.6,N
1563578095.5,286046997.7,N
1563578115.4,286046999.1,N
1563578135.2,286046997.1,N
1563578155.1,286046997.3,N
1563578156.0,286046997.3,N
1563578175.8,286046997.2,N
1563578195.6,286046996.7,N
1563578215.5,286046996.6,N
1563578235.3,286046998.8,N
1563578255.1,286047000.3,N
1563578275.9,286046998.5,N
1563578295.7,286047001.2,N
1563578315.6,286047000.2,N
1563578335.4,286047000.8,N
1563578355.2,286047001.0,N
1563578375.1,286046999.3,N
1563578376.0,286046999.3,N
1563578395.8,286046999.1,N
1563578415.7,286046998.3,N
1563578435.5,286046998.7,N
1563578455.3,286046998.4,N
1563578475.2,286046999.6,N
1563578495.0,286046996.8,N
1563578495.9,286046996.8,N
1563578515.8,286046997.5,N
1563578535.6,286046996.5,N
1563578555.4,286046996.6,N
1563578575.3,286046999.2,N
1563578595.1,286046996.5,N
1563578615.8,286046998.9,N
1563578635.7,286046998.8,N
1563578655.5,286047000.8,N
1563578675.4,286047002.5,N
1563578695.2,286047000.6,N
1563578715.0,286046998.2,N
1563578715.9,286046998.2,N
1563578735.8,286046999.3,N
1563578755.6,286046998.5,N
1563578775.5,286046999.4,N
1563578795.3,286046998.7,N
1563578815.1,286046998.4,N
1563578835.9,286046998.2,N
1563578855.7,286047000.4,N
1563578875.6,286046999.9,N
1563578895.4,286047000.6,N
1563578915.2,286047000.6,N
1563578935.1,286047000.1,N
1563578936.0,286047000.1,N
1563578955.8,286047002.2,N
1563578975.6,286047000.0,N
1563578995.5,286046998.1,N
1563579015.3,286046998.3,N
1563579035.2,286047001.0,N
1563579055.9,286046999.7,N
1563579075.7,286046998.5,N
1563579095.6,286047000.6,N
1563579115.4,286047001.1,N
1563579135.3,286047000.0,N
1563579155.1,286047001.6,N
1563579156.0,286047001.6,N
1563579175.8,286047003.5,N
1563579195.7,286047003.6,N
1563579215.5,286047002.1,N
1563579235.3,286046999.9,N
1563579255.2,286047002.8,N
1563579275.0,286047003.9,N
1563579275.9,286047003.9,N
1563579295.8,286047002.7,N
1563579315.6,286046999.7,N
1563579335.4,286047000.4,N
1563579355.3,286047000.3,N
1563579375.1,286046998.2,N
1563579395.9,286047000.6,N
1563579415.7,286047001.1,N
1563579465.6,286046996.5,E
1563579475.5,286046998.8,N
1563579495.3,286047003.9,P
1563579515.2,286047003.3,N
1563579535.9,286047002.9,N
1563579555.7,286047003.0,N
1563579575.6,286047001.7,N
1563579595.4,286047003.8,N
1563579615.2,286047004.2,N
1563579635.1,286047004.0,N
1563579636.0,286047004.0,N
1563579655.8,286047003.0,N
1563579675.7,286047005.5,Y
1563579695.5,286047002.0,P
1563579715.3,286047001.5,P
1563579735.2,286047001.3,N
1563579755.0,286047001.7,N
1563579755.9,286047001.7,N
1563579775.8,286047003.8,Y
1563579795.6,286047002.6,P
1563579815.4,286047002.4,P
1563579835.3,286047002.3,P
1563579855.1,286046999.7,N
1563579875.9,286047002.8,N
1563579895.7,286046998.3,N
1563579915.5,286046998.1,N
1563579935.4,286047000.3,N
1563579955.2,286047000.4,N
1563579975.0,286047001.9,N
1563579975.9,286047001.9,N
1563579995.8,286047003.2,N
1563580015.6,286047005.9,Y
1563580035.5,286047004.1,P
1563580055.3,286047003.2,N
1563580075.1,286047003.9,P
1563580095.9,286047001.3,N
1563580115.7,286047003.7,N
1563580135.6,286047003.7,Y
1563580155.4,286047002.2,P
1563580175.2,286046999.8,N
1563580195.1,286047002.7,N
1563580196.0,286047002.7,N
1563580215.8,286047002.0,N
1563580235.7,286047002.0,N
1563580255.5,286047002.5,N
1563580275.3,286047000.1,N
1563580295.2,286047000.9,N
1563580315.9,286047001.1,N
1563580335.7,286046998.3,N
1563580355.6,286046999.1,N
1563580375.4,286046999.4,N
1563580395.3,286046999.1,N
1563580415.1,286046999.3,N
1563580416.0,286046999.3,N
1563580435.8,286046999.5,N
1563580455.7,286046997.6,N
1563580475.5,286046997.0,N
1563580495.3,286046999.1,N
1563580515.2,286046996.9,N
1563580535.0,286046996.7,N
1563580535.9,286046996.7,N
1563580555.8,286046996.8,N
1563580575.6,286046999.6,N
1563580595.4,286046997.0,N
1563580615.3,286046997.9,N
1563580635.1,286046995.3,N
1563580655.9,286046997.6,N
1563580675.7,286046997.8,N
1563580695.5,286046995.1,N
1563580715.4,286046998.0,N
1563580735.2,286046997.6,N
1563580755.1,286046995.7,N
1563580756.0,286046995.7,N
1563580775.8,286046995.7,N
1563580795.6,286046996.1,N
